| time (UTC) | temp F | wind direction | speed MPH | gust MPH | rain 1hr in | rain 24hr in | rain mn in | humidity % | barometer mb |
| 20260506062142 | 42 | 23 | 0.0 | 0.0 | 0.00 | 0.03 | 0.00 | 88 | 1011.5 |
| 20260506061122 | 43 | 203 | 0.0 | 0.0 | 0.00 | 0.03 | 0.00 | 88 | 1011.7 |
| 20260506060123 | 44 | 293 | 0.0 | 0.0 | 0.00 | 0.03 | 0.00 | 86 | 1011.7 |
| 20260506051121 | 44 | 180 | 0.0 | 0.0 | 0.00 | 0.03 | 0.00 | 81 | 1011.4 |
| 20260506050121 | 44 | 293 | 0.0 | 0.0 | 0.00 | 0.03 | 0.00 | 82 | 1011.6 |
| 20260506044121 | 44 | 225 | 0.0 | 0.0 | 0.00 | 0.03 | 0.03 | 80 | 1011.5 |
| 20260506043122 | 45 | 225 | 0.0 | 0.0 | 0.00 | 0.03 | 0.03 | 78 | 1011.4 |
| 20260506042122 | 46 | 225 | 0.0 | 0.0 | 0.00 | 0.03 | 0.03 | 78 | 1011.4 |
| 20260506041121 | 46 | 225 | 0.0 | 0.0 | 0.00 | 0.03 | 0.03 | 76 | 1011.4 |
| 20260506040121 | 47 | 225 | 0.0 | 0.0 | 0.00 | 0.03 | 0.03 | 78 | 1011.6 |
| 20260506035121 | 48 | 225 | 0.0 | 0.0 | 0.00 | 0.03 | 0.03 | 75 | 1011.6 |
| 20260506034121 | 48 | 203 | 0.0 | 0.0 | 0.00 | 0.03 | 0.03 | 77 | 1011.6 |
| 20260506033121 | 48 | 203 | 0.0 | 0.0 | 0.00 | 0.03 | 0.03 | 75 | 1011.8 |
| 20260506032142 | 48 | 180 | 0.0 | 0.0 | 0.00 | 0.03 | 0.03 | 77 | 1011.5 |
| 20260506031121 | 48 | 180 | 0.0 | 0.0 | 0.00 | 0.03 | 0.03 | 78 | 1011.4 |
| 20260506030121 | 49 | 210 | 0.0 | 2.0 | 0.00 | 0.03 | 0.03 | 77 | 1011.3 |
| 20260506025121 | 49 | 211 | 0.0 | 2.0 | 0.00 | 0.03 | 0.03 | 73 | 1011.3 |
| 20260506024121 | 49 | 158 | 0.0 | 0.0 | 0.00 | 0.05 | 0.03 | 72 | 1011.3 |
| 20260506023121 | 49 | 225 | 0.0 | 2.0 | 0.00 | 0.07 | 0.03 | 69 | 1011.4 |
| 20260506022121 | 49 | 231 | 1.0 | 2.0 | 0.00 | 0.08 | 0.03 | 72 | 1011.0 |
| 20260506021121 | 49 | 225 | 0.0 | 0.0 | 0.00 | 0.08 | 0.03 | 69 | 1010.7 |
| 20260506020145 | 50 | 225 | 0.0 | 1.0 | 0.00 | 0.08 | 0.03 | 64 | 1010.7 |
| 20260506015145 | 50 | 180 | 0.0 | 0.0 | 0.00 | 0.08 | 0.03 | 63 | 1010.6 |
| 20260506014121 | 50 | 270 | 0.0 | 2.0 | 0.00 | 0.08 | 0.03 | 62 | 1010.5 |
| 20260506013122 | 50 | 248 | 0.0 | 0.0 | 0.00 | 0.09 | 0.03 | 62 | 1010.4 |
| 20260506012121 | 51 | 293 | 0.0 | 0.0 | 0.00 | 0.09 | 0.03 | 62 | 1010.5 |
| 20260506011142 | 51 | 281 | 0.0 | 1.0 | 0.00 | 0.09 | 0.03 | 61 | 1010.2 |
| 20260506010124 | 51 | 4 | 0.0 | 2.0 | 0.00 | 0.09 | 0.03 | 62 | 1010.1 |
| 20260506005122 | 51 | 270 | 0.0 | 0.0 | 0.00 | 0.09 | 0.03 | 59 | 1010.1 |
| 20260506004121 | 52 | 235 | 0.0 | 2.0 | 0.00 | 0.09 | 0.03 | 59 | 1010.1 |
| 20260506003121 | 52 | 281 | 0.0 | 1.0 | 0.00 | 0.09 | 0.03 | 58 | 1009.8 |
| 20260506002121 | 53 | 296 | 1.0 | 2.0 | 0.00 | 0.09 | 0.03 | 56 | 1009.8 |
| 20260506001122 | 53 | 274 | 1.0 | 3.0 | 0.00 | 0.09 | 0.03 | 57 | 1009.8 |
| 20260506000125 | 53 | 304 | 1.0 | 4.0 | 0.00 | 0.09 | 0.03 | 56 | 1009.8 |
| 20260505235142 | 53 | 328 | 2.0 | 4.0 | 0.00 | 0.09 | 0.03 | 55 | 1009.7 |
| 20260505234121 | 53 | 346 | 2.0 | 4.0 | 0.00 | 0.09 | 0.03 | 54 | 1009.9 |
| 20260505233121 | 53 | 326 | 1.0 | 3.0 | 0.00 | 0.09 | 0.03 | 57 | 1010.0 |
| 20260505232124 | 53 | 319 | 2.0 | 4.0 | 0.00 | 0.09 | 0.03 | 55 | 1009.9 |
| 20260505231123 | 53 | 282 | 2.0 | 4.0 | 0.00 | 0.09 | 0.03 | 55 | 1009.9 |
| 20260505230122 | 53 | 313 | 2.0 | 3.0 | 0.00 | 0.09 | 0.03 | 56 | 1009.9 |
| 20260505225121 | 53 | 312 | 3.0 | 7.0 | 0.00 | 0.09 | 0.03 | 54 | 1009.9 |
| 20260505224121 | 53 | 318 | 2.0 | 5.0 | 0.00 | 0.09 | 0.03 | 56 | 1010.1 |
| 20260505223124 | 54 | 286 | 2.0 | 4.0 | 0.00 | 0.09 | 0.03 | 54 | 1010.0 |
| 20260505222121 | 54 | 311 | 2.0 | 6.0 | 0.00 | 0.09 | 0.03 | 58 | 1010.2 |
| 20260505221121 | 53 | 321 | 2.0 | 4.0 | 0.00 | 0.09 | 0.03 | 54 | 1010.1 |
| 20260505220142 | 54 | 292 | 2.0 | 4.0 | 0.00 | 0.09 | 0.03 | 54 | 1010.1 |
| 20260505215122 | 53 | 298 | 3.0 | 5.0 | 0.00 | 0.09 | 0.03 | 54 | 1010.2 |
| 20260505214122 | 53 | 317 | 3.0 | 5.0 | 0.00 | 0.09 | 0.03 | 54 | 1010.4 |
| 20260505213122 | 53 | 308 | 4.0 | 8.0 | 0.00 | 0.09 | 0.03 | 52 | 1010.3 |
| 20260505212122 | 54 | 329 | 4.0 | 8.0 | 0.00 | 0.09 | 0.03 | 52 | 1010.2 |
| 20260505211121 | 54 | 332 | 3.0 | 6.0 | 0.00 | 0.09 | 0.03 | 56 | 1010.3 |
| 20260505210122 | 55 | 352 | 3.0 | 6.0 | 0.00 | 0.09 | 0.03 | 54 | 1010.7 |
| 20260505205142 | 55 | 326 | 4.0 | 7.0 | 0.00 | 0.09 | 0.03 | 54 | 1010.7 |
| 20260505204143 | 56 | 334 | 3.0 | 7.0 | 0.00 | 0.09 | 0.03 | 55 | 1010.8 |
| 20260505203122 | 56 | 249 | 2.0 | 5.0 | 0.00 | 0.09 | 0.03 | 61 | 1010.9 |
| 20260505202122 | 55 | 225 | 4.0 | 6.0 | 0.00 | 0.09 | 0.03 | 63 | 1011.1 |
| 20260505201122 | 54 | 289 | 3.0 | 5.0 | 0.00 | 0.09 | 0.03 | 64 | 1011.1 |
| 20260505200122 | 53 | 247 | 2.0 | 4.0 | 0.00 | 0.09 | 0.03 | 63 | 1011.4 |
| 20260505195122 | 53 | 267 | 3.0 | 6.0 | 0.00 | 0.09 | 0.03 | 64 | 1011.4 |
| 20260505194125 | 54 | 233 | 2.0 | 5.0 | 0.00 | 0.09 | 0.03 | 63 | 1011.3 |
| 20260505193124 | 53 | 237 | 3.0 | 7.0 | 0.00 | 0.09 | 0.03 | 62 | 1011.4 |
| 20260505192124 | 53 | 237 | 3.0 | 5.0 | 0.00 | 0.09 | 0.03 | 64 | 1011.3 |
| 20260505191122 | 53 | 238 | 2.0 | 5.0 | 0.00 | 0.09 | 0.03 | 65 | 1011.5 |
| 20260505190122 | 53 | 245 | 2.0 | 5.0 | 0.00 | 0.09 | 0.03 | 64 | 1011.5 |
| 20260505185124 | 53 | 255 | 2.0 | 5.0 | 0.00 | 0.09 | 0.03 | 65 | 1011.5 |
| 20260505184124 | 52 | 237 | 2.0 | 4.0 | 0.00 | 0.09 | 0.03 | 66 | 1011.5 |
| 20260505183124 | 52 | 276 | 2.0 | 3.0 | 0.00 | 0.09 | 0.03 | 63 | 1011.4 |
| 20260505182122 | 53 | 11 | 2.0 | 3.0 | 0.00 | 0.09 | 0.03 | 62 | 1011.6 |
| 20260505181122 | 53 | 268 | 2.0 | 4.0 | 0.00 | 0.09 | 0.03 | 61 | 1011.5 |
| 20260505180122 | 53 | 313 | 2.0 | 5.0 | 0.00 | 0.09 | 0.03 | 59 | 1011.5 |
| 20260505175126 | 53 | 308 | 3.0 | 4.0 | 0.00 | 0.09 | 0.03 | 63 | 1011.6 |
| 20260505174126 | 53 | 316 | 4.0 | 6.0 | 0.00 | 0.09 | 0.03 | 61 | 1011.6 |
| 20260505173122 | 52 | 310 | 4.0 | 6.0 | 0.00 | 0.09 | 0.03 | 61 | 1011.5 |
| 20260505172122 | 53 | 319 | 3.0 | 5.0 | 0.00 | 0.09 | 0.03 | 61 | 1011.3 |
| 20260505171121 | 53 | 334 | 3.0 | 8.0 | 0.00 | 0.09 | 0.03 | 61 | 1011.0 |
| 20260505170121 | 53 | 359 | 5.0 | 7.0 | 0.00 | 0.09 | 0.03 | 61 | 1011.0 |
| 20260505165121 | 53 | 338 | 4.0 | 8.0 | 0.00 | 0.09 | 0.03 | 59 | 1011.0 |
| 20260505164121 | 53 | 336 | 4.0 | 7.0 | 0.00 | 0.09 | 0.03 | 62 | 1010.9 |
| 20260505163122 | 53 | 343 | 5.0 | 9.0 | 0.00 | 0.09 | 0.03 | 60 | 1010.9 |
| 20260505162148 | 54 | 343 | 5.0 | 8.0 | 0.00 | 0.09 | 0.03 | 63 | 1011.0 |
| 20260505161125 | 54 | 324 | 5.0 | 7.0 | 0.00 | 0.09 | 0.03 | 65 | 1010.7 |
| 20260505160146 | 53 | 335 | 4.0 | 6.0 | 0.00 | 0.09 | 0.03 | 65 | 1010.4 |
| 20260505153124 | 53 | 306 | 4.0 | 6.0 | 0.00 | 0.09 | 0.03 | 70 | 1010.1 |
| 20260505152123 | 52 | 314 | 5.0 | 9.0 | 0.00 | 0.09 | 0.03 | 71 | 1010.1 |
| 20260505151145 | 51 | 331 | 3.0 | 6.0 | 0.00 | 0.09 | 0.03 | 74 | 1010.3 |
| 20260505150122 | 50 | 320 | 4.0 | 6.0 | 0.00 | 0.09 | 0.03 | 77 | 1010.2 |
| 20260505140122 | 47 | 332 | 4.0 | 6.0 | 0.00 | 0.09 | 0.03 | 83 | 1010.3 |
| 20260505130124 | 46 | 310 | 4.0 | 8.0 | 0.03 | 0.09 | 0.03 | 86 | 1010.2 |
| 20260505124122 | 46 | 294 | 3.0 | 7.0 | 0.02 | 0.08 | 0.02 | 86 | 1010.6 |
| 20260505123122 | 47 | 306 | 4.0 | 7.0 | 0.01 | 0.07 | 0.01 | 82 | 1010.9 |
| 20260505122122 | 48 | 289 | 3.0 | 5.0 | 0.01 | 0.07 | 0.01 | 82 | 1011.4 |
| 20260505121121 | 48 | 298 | 3.0 | 6.0 | 0.00 | 0.06 | 0.00 | 77 | 1011.2 |
| 20260505120122 | 49 | 321 | 3.0 | 5.0 | 0.00 | 0.06 | 0.00 | 71 | 1010.5 |
| 20260505115143 | 49 | 289 | 4.0 | 7.0 | 0.00 | 0.06 | 0.00 | 71 | 1010.5 |
| 20260505114122 | 49 | 307 | 3.0 | 6.0 | 0.00 | 0.06 | 0.00 | 71 | 1009.0 |
| 20260505113123 | 49 | 293 | 4.0 | 9.0 | 0.00 | 0.06 | 0.00 | 72 | 1008.8 |
| 20260505112123 | 49 | 294 | 3.0 | 6.0 | 0.00 | 0.06 | 0.00 | 74 | 1008.8 |
| 20260505111124 | 49 | 301 | 3.0 | 5.0 | 0.00 | 0.06 | 0.00 | 73 | 1009.0 |
| 20260505110122 | 50 | 257 | 4.0 | 6.0 | 0.00 | 0.06 | 0.00 | 70 | 1009.0 |
| 20260505102143 | 50 | 327 | 3.0 | 5.0 | 0.00 | 0.06 | 0.00 | 70 | 1008.4 |
| 20260505101124 | 50 | 288 | 3.0 | 6.0 | 0.00 | 0.06 | 0.00 | 70 | 1008.0 |
| 20260505100124 | 50 | 287 | 3.0 | 6.0 | 0.00 | 0.06 | 0.00 | 71 | 1008.0 |
| 20260505095143 | 50 | 277 | 2.0 | 6.0 | 0.00 | 0.06 | 0.00 | 72 | 1008.1 |
| 20260505094122 | 50 | 326 | 3.0 | 5.0 | 0.00 | 0.06 | 0.00 | 72 | 1007.8 |
| 20260505093122 | 51 | 300 | 2.0 | 5.0 | 0.00 | 0.06 | 0.00 | 73 | 1008.1 |
| 20260505092143 | 51 | 259 | 2.0 | 4.0 | 0.00 | 0.06 | 0.00 | 71 | 1008.2 |
| 20260505091122 | 52 | 317 | 3.0 | 5.0 | 0.00 | 0.06 | 0.00 | 69 | 1008.2 |
| 20260505090122 | 53 | 311 | 3.0 | 7.0 | 0.00 | 0.06 | 0.00 | 62 | 1007.6 |
| 20260505085124 | 53 | 297 | 3.0 | 5.0 | 0.00 | 0.06 | 0.00 | 65 | 1007.6 |
| 20260505084124 | 53 | 304 | 3.0 | 4.0 | 0.00 | 0.06 | 0.00 | 64 | 1007.8 |
| 20260505083143 | 53 | 300 | 2.0 | 4.0 | 0.00 | 0.06 | 0.00 | 62 | 1007.5 |
| 20260505082143 | 54 | 257 | 3.0 | 5.0 | 0.00 | 0.06 | 0.00 | 61 | 1007.4 |
| 20260505081122 | 54 | 299 | 4.0 | 7.0 | 0.00 | 0.06 | 0.00 | 60 | 1006.8 |
| 20260505080143 | 54 | 306 | 4.0 | 6.0 | 0.00 | 0.06 | 0.00 | 60 | 1006.3 |
| 20260505075122 | 54 | 299 | 3.0 | 7.0 | 0.00 | 0.06 | 0.00 | 62 | 1006.3 |
| 20260505074124 | 54 | 318 | 3.0 | 6.0 | 0.00 | 0.06 | 0.00 | 62 | 1005.9 |
| 20260505073144 | 55 | 302 | 3.0 | 6.0 | 0.00 | 0.06 | 0.00 | 60 | 1005.8 |
| 20260505072145 | 54 | 295 | 2.0 | 4.0 | 0.00 | 0.06 | 0.00 | 63 | 1005.7 |
| 20260505071122 | 55 | 277 | 3.0 | 6.0 | 0.00 | 0.06 | 0.00 | 62 | 1005.4 |
| 20260505070122 | 55 | 296 | 3.0 | 6.0 | 0.00 | 0.06 | 0.00 | 63 | 1005.3 |